CSN3177 ZGGG-ZBAD

Flight info

Callsign CSN3177
Flight time N/A
Altitude 40100
Route MIKIP9 MIKIP A461 BUBDA W56 REBIS/K0913S1250 W56 ORODO/K0902S1220 W62 KARVU/K0904S1250 W62 IGDID/K0900S1220 W62 TEKIL G212 BELAX BELAX5L
Aircraft A359/H-SDE2E3GHIJ3J4J5LM1ORWXY/LB1D1

Departure

Time 2026-05-05 02:53
Airport Guangzhou Baiyun International Airport (ZGGG)

Arrival

Time N/A
Airport Beijing Daxing International Airport (ZBAD)
Time Latitude Longitude Altitude Speed Heading
2026-05-05 02:31 23.40334 113.29825 65 ft 0 kts 249°
2026-05-05 02:42 23.40338 113.29834 65 ft 4 kts 249°
2026-05-05 02:42 23.40348 113.29862 71 ft 4 kts 249°
2026-05-05 02:42 23.40357 113.29889 51 ft 2 kts 249°
2026-05-05 02:43 23.40368 113.29910 55 ft 4 kts 210°
2026-05-05 02:43 23.40390 113.29913 55 ft 4 kts 159°
2026-05-05 02:43 23.40405 113.29906 55 ft 3 kts 162°
2026-05-05 02:45 23.40390 113.29912 55 ft 6 kts 162°
2026-05-05 02:45 23.40326 113.29946 63 ft 14 kts 138°
2026-05-05 02:45 23.40282 113.30067 60 ft 19 kts 105°
2026-05-05 02:46 23.40248 113.30213 59 ft 21 kts 103°
2026-05-05 02:46 23.40258 113.30366 55 ft 21 kts 49°
2026-05-05 02:46 23.40351 113.30489 55 ft 20 kts 75°
2026-05-05 02:46 23.40329 113.30644 58 ft 22 kts 105°
2026-05-05 02:47 23.40291 113.30807 58 ft 23 kts 109°
2026-05-05 02:47 23.40207 113.30899 58 ft 17 kts 113°
2026-05-05 02:47 23.40164 113.31014 58 ft 15 kts 143°
2026-05-05 02:47 23.40061 113.31005 59 ft 16 kts 194°
2026-05-05 02:48 23.39929 113.30970 59 ft 23 kts 194°
2026-05-05 02:48 23.39768 113.30926 57 ft 25 kts 194°
2026-05-05 02:48 23.39595 113.30880 56 ft 26 kts 194°
2026-05-05 02:48 23.39412 113.30830 60 ft 28 kts 194°
2026-05-05 02:49 23.39220 113.30778 60 ft 29 kts 194°
2026-05-05 02:49 23.39021 113.30724 57 ft 30 kts 194°
2026-05-05 02:49 23.38816 113.30669 57 ft 31 kts 194°
2026-05-05 02:49 23.38603 113.30611 56 ft 32 kts 194°
2026-05-05 02:50 23.38383 113.30552 57 ft 33 kts 193°
2026-05-05 02:50 23.38176 113.30497 60 ft 28 kts 193°
2026-05-05 02:50 23.37983 113.30444 57 ft 29 kts 194°
2026-05-05 02:50 23.37813 113.30398 55 ft 18 kts 193°
2026-05-05 02:51 23.37690 113.30365 57 ft 15 kts 194°
2026-05-05 02:51 23.37616 113.30393 55 ft 11 kts 114°
2026-05-05 02:51 23.37612 113.30408 56 ft 0 kts 106°
2026-05-05 02:51 23.37608 113.30422 58 ft 7 kts 106°
2026-05-05 02:52 23.37592 113.30501 63 ft 12 kts 89°
2026-05-05 02:52 23.37648 113.30556 57 ft 8 kts 14°
2026-05-05 02:52 23.37660 113.30560 55 ft 8 kts 15°
2026-05-05 02:52 23.37920 113.30629 56 ft 76 kts 14°
2026-05-05 02:53 23.38660 113.30829 62 ft 140 kts 14°
2026-05-05 02:53 23.39753 113.31118 372 ft 168 kts 13°
2026-05-05 02:53 23.40849 113.31391 1226 ft 162 kts 13°
2026-05-05 02:53 23.42021 113.31712 1596 ft 188 kts 15°
2026-05-05 02:54 23.43397 113.32112 1798 ft 222 kts 16°
2026-05-05 02:54 23.44995 113.32598 2101 ft 251 kts 16°
2026-05-05 02:54 23.46659 113.33120 3123 ft 246 kts 17°
2026-05-05 02:54 23.48331 113.33661 3985 ft 251 kts 16°
2026-05-05 02:55 23.50003 113.34168 4808 ft 254 kts 14°
2026-05-05 02:55 23.51740 113.34677 5630 ft 257 kts 13°
2026-05-05 02:55 23.53460 113.35182 6391 ft 262 kts 12°
2026-05-05 02:55 23.55234 113.35698 7195 ft 266 kts 10°
2026-05-05 02:56 23.57057 113.36108 7992 ft 269 kts
2026-05-05 02:56 23.58922 113.36462 8781 ft 275 kts
2026-05-05 02:56 23.60831 113.36820 9576 ft 281 kts
2026-05-05 02:56 23.62772 113.37187 10324 ft 286 kts
2026-05-05 02:57 23.64765 113.37569 10898 ft 299 kts
2026-05-05 02:57 23.66890 113.37967 11276 ft 320 kts
2026-05-05 02:57 23.69156 113.38393 11654 ft 340 kts
2026-05-05 02:57 23.71552 113.38847 12026 ft 359 kts
2026-05-05 02:58 23.74072 113.39328 12427 ft 375 kts
2026-05-05 02:58 23.76678 113.39829 12974 ft 384 kts
2026-05-05 02:58 23.79322 113.40339 13673 ft 388 kts
2026-05-05 02:58 23.81991 113.40855 14320 ft 391 kts
2026-05-05 02:59 23.84688 113.41373 14825 ft 397 kts
2026-05-05 02:59 23.87430 113.41901 15384 ft 403 kts
2026-05-05 02:59 23.90208 113.42432 15950 ft 407 kts
2026-05-05 02:59 23.93001 113.42967 16472 ft 412 kts
2026-05-05 03:00 23.95845 113.43511 16994 ft 417 kts
2026-05-05 03:00 23.98722 113.44061 17520 ft 423 kts
2026-05-05 03:00 24.01641 113.44621 18066 ft 427 kts
2026-05-05 03:00 24.04580 113.45186 18551 ft 431 kts
2026-05-05 03:01 24.07556 113.45554 19008 ft 428 kts 354°
2026-05-05 03:01 24.10496 113.45341 19572 ft 422 kts 347°
2026-05-05 03:01 24.13389 113.44955 20221 ft 421 kts 346°
2026-05-05 03:01 24.16298 113.44552 20845 ft 422 kts 346°
2026-05-05 03:02 24.19213 113.44150 21451 ft 423 kts 346°
2026-05-05 03:02 24.22147 113.43750 22021 ft 426 kts 346°
2026-05-05 03:02 24.25092 113.43351 22576 ft 428 kts 346°
2026-05-05 03:02 24.28016 113.42955 23118 ft 430 kts 345°
2026-05-05 03:03 24.30994 113.42553 23650 ft 432 kts 345°
2026-05-05 03:03 24.33986 113.42169 24070 ft 436 kts 347°
2026-05-05 03:03 24.37048 113.42018 24500 ft 444 kts 351°
2026-05-05 03:03 24.40157 113.42026 24899 ft 450 kts 353°
2026-05-05 03:04 24.43303 113.42119 25423 ft 453 kts 354°
2026-05-05 03:04 24.46462 113.42250 25951 ft 455 kts 354°
2026-05-05 03:04 24.49630 113.42380 26549 ft 456 kts 354°
2026-05-05 03:04 24.52812 113.42499 27054 ft 459 kts 354°
2026-05-05 03:05 24.56016 113.42605 27528 ft 462 kts 354°
2026-05-05 03:05 24.59243 113.42704 28035 ft 464 kts 353°
2026-05-05 03:05 24.62476 113.42798 28487 ft 467 kts 353°